Weather History for KO69 - May, 2014

Change the Weather History Date:

Tuesday, May 6, 2014

  Actual Average (KAPC) Record (KAPC)
Temperature  
Mean Temperature 54 °F 57 °F  
Max Temperature 66 °F 71 °F 90 °F (2007)
Min Temperature 42 °F 44 °F 38 °F (2003)
Degree Days  
Heating Degree Days 11    
Month to date heating degree days  
Since 1 July heating degree days  
Cooling Degree Days 0    
Month to date cooling degree days  
Year to date cooling degree days  
Growing Degree Days 4 (Base 50)    
Moisture  
Dew Point 46 °F    
Average Humidity 68    
Maximum Humidity 94    
Minimum Humidity 49    
Precipitation  
Precipitation 0.00 in - 0.40 in (1926)
Month to date precipitation  
Year to date precipitation  
Sea Level Pressure  
Sea Level Pressure 29.92 in    
Wind  
Wind Speed 10 mph (WNW)    
Max Wind Speed 18 mph    
Max Gust Speed 25 mph    
Visibility 10 miles    
Events      
T = Trace of Precipitation, MM = Missing Value Source: NWS Daily Summary

Daily Weather History Graph

Daily Weather History Graph

Search for Another Location

Airport or City:

Trip Planner

Search our weather history database for the weather conditions in past years. The results will help you decide how hot, cold, wet, or windy it might be!

Date:

Astronomy

May. 06, 2014 Rise Set
Actual Time 6:08 AM PDT 8:06 PM PDT
Civil Twilight 5:39 AM PDT 8:35 PM PDT
Nautical Twilight 5:04 AM PDT 9:10 PM PDT
Astronomical Twilight 4:26 AM PDT 9:48 PM PDT
Moon 12:28 PM PDT (5/6) 1:29 AM PDT (5/6)
Length of Visible Light 14h 56m
Length of Day
13h 58m
Waxing Crescent, 47% of the Moon is Illuminated
May 6
Waxing Crescent
May 6
First Quarter
May 14
Full
May 21
Last Quarter
May 28
New

Hourly Weather History & Observations

Time (PDT) Temp. Windchill Dew Point Humidity Pressure Visibility Wind Dir Wind Speed Gust Speed Precip Events Conditions
12:15 AM 48.2 °F - 44.6 °F 87% 29.97 in 10.0 mi WNW 10.4 mph - N/A   Mostly Cloudy
4:55 AM 42.8 °F 38.6 °F 41.0 °F 93% 29.94 in 10.0 mi West 6.9 mph - N/A   Clear
5:15 AM 44.6 °F 40.2 °F 41.0 °F 87% 29.94 in 10.0 mi West 8.1 mph - N/A   Mostly Cloudy
5:35 AM 46.4 °F 42.4 °F 41.0 °F 81% 29.94 in 10.0 mi West 8.1 mph - N/A   Overcast
5:55 AM 46.4 °F 42.9 °F 41.0 °F 81% 29.94 in 10.0 mi West 6.9 mph - N/A   Overcast
6:15 AM 44.6 °F 40.2 °F 41.0 °F 87% 29.95 in 10.0 mi WNW 8.1 mph - N/A   Mostly Cloudy
6:55 AM 46.4 °F 42.4 °F 41.0 °F 81% 29.95 in 10.0 mi WNW 8.1 mph - N/A   Clear
7:15 AM 48.2 °F - 42.8 °F 82% 29.95 in 10.0 mi NW 6.9 mph - N/A   Clear
7:35 AM 50.0 °F - 42.8 °F 76% 29.95 in 10.0 mi WNW 8.1 mph 17.3 mph N/A   Clear
7:55 AM 50.0 °F - 42.8 °F 76% 29.95 in 10.0 mi NW 5.8 mph - N/A   Clear
8:15 AM 53.6 °F - 42.8 °F 67% 29.95 in 10.0 mi NW 5.8 mph - N/A   Clear
8:35 AM 53.6 °F - 42.8 °F 67% 29.95 in 10.0 mi NW 6.9 mph - N/A   Clear
8:55 AM 55.4 °F - 42.8 °F 63% 29.96 in 10.0 mi NW 8.1 mph - N/A   Clear
9:15 AM 55.4 °F - 42.8 °F 63% 29.95 in 10.0 mi WNW 9.2 mph - N/A   Clear
9:35 AM 57.2 °F - 42.8 °F 59% 29.95 in 10.0 mi NW 8.1 mph 17.3 mph N/A   Clear
9:55 AM 59.0 °F - 44.6 °F 59% 29.95 in 10.0 mi NW 8.1 mph - N/A   Clear
10:15 AM 59.0 °F - 44.6 °F 59% 29.95 in 10.0 mi WNW 8.1 mph - N/A   Clear
10:35 AM 60.8 °F - 44.6 °F 55% 29.94 in 10.0 mi WNW 5.8 mph - N/A   Clear
10:55 AM 62.6 °F - 44.6 °F 52% 29.94 in 10.0 mi WNW 10.4 mph - N/A   Clear
11:15 AM 62.6 °F - 46.4 °F 55% 29.94 in 10.0 mi West 10.4 mph - N/A   Clear
11:35 AM 64.4 °F - 46.4 °F 52% 29.94 in 10.0 mi WSW 11.5 mph - N/A   Clear
11:55 AM 64.4 °F - 46.4 °F 52% 29.94 in 10.0 mi West 10.4 mph - N/A   Clear
12:15 PM 64.4 °F - 48.2 °F 56% 29.94 in 10.0 mi West 13.8 mph - N/A   Clear
12:35 PM 64.4 °F - 46.4 °F 52% 29.94 in 10.0 mi WNW 12.7 mph 16.1 mph N/A   Clear
1:15 PM 66.2 °F - 46.4 °F 49% 29.92 in 10.0 mi WSW 15.0 mph 21.9 mph N/A   Clear
1:35 PM 66.2 °F - 46.4 °F 49% 29.92 in 10.0 mi WSW 15.0 mph 20.7 mph N/A   Clear
1:55 PM 66.2 °F - 46.4 °F 49% 29.92 in 10.0 mi West 15.0 mph 23.0 mph N/A   Clear
2:15 PM 66.2 °F - 46.4 °F 49% 29.91 in 10.0 mi West 18.4 mph 24.2 mph N/A   Clear
2:35 PM 66.2 °F - 48.2 °F 52% 29.91 in 10.0 mi West 16.1 mph 24.2 mph N/A   Clear
2:55 PM 66.2 °F - 48.2 °F 52% 29.90 in 10.0 mi West 17.3 mph 25.3 mph N/A   Clear
3:15 PM 66.2 °F - 50.0 °F 56% 29.90 in 10.0 mi WSW 16.1 mph 19.6 mph N/A   Clear
3:35 PM 66.2 °F - 50.0 °F 56% 29.89 in 10.0 mi West 17.3 mph 23.0 mph N/A   Clear
3:55 PM 66.2 °F - 50.0 °F 56% 29.88 in 10.0 mi West 16.1 mph 25.3 mph N/A   Clear
4:15 PM 66.2 °F - 50.0 °F 56% 29.88 in 10.0 mi West 15.0 mph 23.0 mph N/A   Clear
4:35 PM 66.2 °F - 50.0 °F 56% 29.87 in 10.0 mi WSW 17.3 mph 23.0 mph N/A   Clear
4:55 PM 66.2 °F - 50.0 °F 56% 29.87 in 10.0 mi WSW 15.0 mph - N/A   Clear
5:15 PM 64.4 °F - 50.0 °F 59% 29.87 in 10.0 mi West 17.3 mph 21.9 mph N/A   Clear
5:35 PM 64.4 °F - 50.0 °F 59% 29.87 in 10.0 mi West 16.1 mph 21.9 mph N/A   Clear
5:55 PM 64.4 °F - 50.0 °F 59% 29.87 in 10.0 mi West 13.8 mph - N/A   Clear
6:15 PM 64.4 °F - 50.0 °F 59% 29.87 in 10.0 mi West 15.0 mph 19.6 mph N/A   Clear
6:35 PM 62.6 °F - 50.0 °F 63% 29.87 in 10.0 mi WNW 12.7 mph 18.4 mph N/A   Clear
6:55 PM 60.8 °F - 48.2 °F 63% 29.87 in 10.0 mi West 15.0 mph 20.7 mph N/A   Clear
7:15 PM 59.0 °F - 48.2 °F 67% 29.88 in 10.0 mi WNW 12.7 mph 20.7 mph N/A   Clear
7:35 PM 57.2 °F - 48.2 °F 72% 29.88 in 10.0 mi WNW 10.4 mph 16.1 mph N/A   Clear
8:15 PM 55.4 °F - 48.2 °F 77% 29.89 in 10.0 mi WNW 10.4 mph - N/A   Clear
8:35 PM 53.6 °F - 48.2 °F 82% 29.90 in 10.0 mi WNW 10.4 mph 16.1 mph N/A   Partly Cloudy
8:55 PM 53.6 °F - 48.2 °F 82% 29.90 in 10.0 mi WNW 5.8 mph - N/A   Mostly Cloudy
9:15 PM 51.8 °F - 48.2 °F 88% 29.90 in 9.0 mi WNW 6.9 mph - N/A   Overcast
9:35 PM 51.8 °F - 48.2 °F 88% 29.91 in 10.0 mi WNW 8.1 mph - N/A   Overcast
9:55 PM 50.0 °F - 48.2 °F 94% 29.91 in 10.0 mi West 5.8 mph - N/A   Overcast
10:15 PM 50.0 °F - 46.4 °F 87% 29.92 in 10.0 mi WNW 6.9 mph - N/A   Overcast
10:35 PM 50.0 °F - 46.4 °F 87% 29.92 in 10.0 mi West 9.2 mph - N/A   Overcast
11:15 PM 50.0 °F - 46.4 °F 87% 29.92 in 10.0 mi WNW 5.8 mph - N/A   Overcast
11:35 PM 48.2 °F - 46.4 °F 93% 29.92 in 10.0 mi WNW 4.6 mph - N/A   Overcast
11:55 PM 48.2 °F - 46.4 °F 93% 29.92 in 10.0 mi Calm Calm - N/A   Overcast